Marathon, FL

12:44 AM EST on January 19, 2018 (GMT -0500)
Florida Keys Marathon

Weather History for KMTH - November, 2010

Change the Weather History Date:

Monday, November 15, 2010

  Actual Average Record
Temperature  
Mean Temperature 75 °F 76 °F  
Max Temperature 81 °F 81 °F 88 °F (2008)
Min Temperature 69 °F 71 °F 68 °F (2014)
Degree Days  
Heating Degree Days 0 0  
Month to date heating degree days 1 0  
Since 1 July heating degree days 1 0  
Cooling Degree Days 10 11  
Month to date cooling degree days 117 176  
Year to date cooling degree days 4275 4615  
Growing Degree Days 25 (Base 50)    
Moisture  
Dew Point 64 °F    
Average Humidity 71    
Maximum Humidity 90    
Minimum Humidity 51    
Precipitation  
Precipitation 0.00 in 0.10 in 1.59 in (2015)
Month to date precipitation 1.87 1.67  
Year to date precipitation 52.85 43.00  
Snow  
Snow 0.00 in - - ()
Month to date snowfall 0.0  
Since 1 July snowfall 0.0  
Since 1 September snowfall 0.0  
Snow Depth 0.00 in    
Sea Level Pressure  
Sea Level Pressure 29.96 in    
Wind  
Wind Speed 6 mph (East)    
Max Wind Speed 10 mph    
Max Gust Speed 13 mph    
Visibility 10 miles    
Events      
T = Trace of Precipitation, MM = Missing Value Source: NWS Daily Summary

Daily Weather History Graph

Daily Weather History Graph

Search for Another Location

Airport or City:

Trip Planner

Search our weather history database for the weather conditions in past years. The results will help you decide how hot, cold, wet, or windy it might be!

Date:

Astronomy

Nov. 15, 2010 Rise Set
Actual Time 6:40 AM EST 5:37 PM EST
Civil Twilight 6:16 AM EST 6:01 PM EST
Nautical Twilight 5:48 AM EST 6:28 PM EST
Astronomical Twilight 5:21 AM EST 6:55 PM EST
Moon 1:48 PM EST (11/15) 1:19 AM EST (11/15)
Length of Visible Light 11h 44m
Length of Day
10h 56m
Waxing Gibbous, 69% of the Moon is Illuminated
Nov 15
Waxing Gibbous
Nov 21
Full
Nov 28
Last Quarter
Dec 5
New
Dec 13
First Quarter

Hourly Weather History & Observations

Time (EST) Temp. Heat Index Dew Point Humidity Pressure Visibility Wind Dir Wind Speed Gust Speed Precip Events Conditions
12:53 AM 70.0 °F - 66.0 °F 87% 29.99 in 10.0 mi North 3.5 mph - N/A   Clear
1:53 AM 70.0 °F - 66.0 °F 87% 29.98 in 10.0 mi North 4.6 mph - N/A   Clear
2:53 AM 70.0 °F - 64.9 °F 84% 29.96 in 10.0 mi NNE 4.6 mph - N/A   Clear
3:53 AM 70.0 °F - 64.0 °F 81% 29.96 in 10.0 mi NNE 8.1 mph - N/A   Clear
4:53 AM 70.0 °F - 62.1 °F 76% 29.95 in 10.0 mi NE 8.1 mph - N/A   Clear
5:53 AM 70.0 °F - 63.0 °F 78% 29.95 in 10.0 mi ENE 8.1 mph - N/A   Clear
6:53 AM 70.0 °F - 63.0 °F 78% 29.97 in 10.0 mi ENE 5.8 mph - N/A   Clear
7:53 AM 72.0 °F - 64.0 °F 76% 29.98 in 10.0 mi ENE 6.9 mph - N/A   Clear
8:53 AM 75.0 °F - 64.0 °F 69% 29.99 in 10.0 mi NE 8.1 mph - N/A   Clear
9:53 AM 77.0 °F - 64.0 °F 64% 30.00 in 10.0 mi NE 9.2 mph - N/A   Clear
10:53 AM 78.1 °F - 64.0 °F 62% 30.00 in 10.0 mi NE 9.2 mph - N/A   Clear
11:53 AM 80.1 °F 81.1 °F 61.0 °F 52% 29.98 in 10.0 mi Variable 4.6 mph - N/A   Clear
12:53 PM 79.0 °F - 61.0 °F 54% 29.96 in 10.0 mi East 6.9 mph - N/A   Clear
1:53 PM 80.1 °F 81.5 °F 63.0 °F 56% 29.93 in 10.0 mi Variable 5.8 mph - N/A   Clear
3:53 PM 78.1 °F - 64.0 °F 62% 29.92 in 10.0 mi Variable 4.6 mph - N/A   Clear
4:53 PM 77.0 °F - 63.0 °F 62% 29.92 in 10.0 mi SSE 5.8 mph - N/A   Scattered Clouds
5:53 PM 75.9 °F - 64.0 °F 67% 29.92 in 10.0 mi SE 5.8 mph - N/A   Mostly Cloudy
6:53 PM 75.0 °F - 64.9 °F 71% 29.94 in 10.0 mi SE 6.9 mph - N/A   Partly Cloudy
7:53 PM 75.0 °F - 64.0 °F 69% 29.95 in 10.0 mi SE 8.1 mph - N/A   Partly Cloudy
8:53 PM 75.0 °F - 64.0 °F 69% 29.95 in 10.0 mi ESE 5.8 mph - N/A   Partly Cloudy
9:53 PM 75.0 °F - 63.0 °F 66% 29.96 in 10.0 mi SE 4.6 mph - N/A   Partly Cloudy
10:53 PM 75.0 °F - 63.0 °F 66% 29.95 in 10.0 mi SE 8.1 mph 16.1 mph N/A   Partly Cloudy
11:53 PM 75.0 °F - 64.9 °F 71% 29.94 in 10.0 mi SE 8.1 mph - N/A   Clear